Fargo, ND

2:46 PM CDT on April 26, 2017 (GMT -0500)
Northport | | Change Station
Active Advisory: Winter Weather Advisory

Elev 899 ft 46.91 °N, 96.79 °W | Updated 12 seconds ago

Light Snow
Light Snow Mist
28.6 °F
Feels Like 23 °F
N
5.0
Wind Variable Wind from NNE

Today
High -- | Low -- °F
--% Chance of Precip.
Yesterday
High -- | Low -- °F
Precip. -- in
Pressure 29.73 in
Visibility 1.0 miles
Clouds Few 900 ft
Mostly Cloudy 2000 ft
Overcast 2900 ft
Windchill 23 °F
Dew Point 27 °F
Humidity 96%
Rainfall 0.00 in
Snow Depth Not available.
6:19 AM 8:31 PM
New Moon, 0% visible
SPECI KFAR 261917Z 01015G23KT 1SM -SN BR FEW009 BKN020 OVC029 M01/M03 A2973 RMK AO2 P0000 T10111028
Pressure 29.73 in
Visibility 1.0 miles
Clouds Few 900 ft
Mostly Cloudy 2000 ft
Overcast 2900 ft
Windchill 23 °F
Dew Point 27 °F
Humidity 96%
Rainfall 0.00 in
Snow Depth Not available.
6:19 AM 8:31 PM
New Moon, 0% visible
SPECI KFAR 261917Z 01015G23KT 1SM -SN BR FEW009 BKN020 OVC029 M01/M03 A2973 RMK AO2 P0000 T10111028

Get Your Daily Forecast Email!

Thanks for signing up!

Be on the lookout for a verification email in your inbox.

You'll start receiving severe weather alerts in your inbox..

×

10-Day Weather Forecast

Almanac

Astronomy

Apr. 26, 2017 Rise Set
Actual Time
Civil Twilight
Nautical Twilight
Astronomical Twilight
Moon
Length of Visible Light
Length of Day
Tomorrow will be .
, % of the Moon is Illuminated

Today's Extremes

State Highs State Lows

Community

WunderPhotos

WunderBlog® & News

Nearby

Air Quality

  Air Quality AQ Index Pollutant
Not available.

Snow Depth

Station Depth Elevation

Earthquake Activity

City Distance Mag. Time & Date
Minimum magnitude displayed is 2.5.

Coastal Water Temperatures

Place Temperature

Stations

Nearby Weather Stations

Station Location Temp. Windchill Dew Point Humidity Wind Precip. Elev Updated Type
                   

Watches & Warnings

Winter Weather Advisory
Issued: 1:57 PM CDT Apr. 26, 2017 – National Weather Service

... Winter Weather Advisory remains in effect until 7 PM CDT this
evening...

* timing... expect light snow to continue with possibly some sleet
or freezing rain mixing in. Precipitation will begin to diminish
by this evening.

* Snow and ice accumulations... additional snow accumulations of up
to 1 inch are expected with a glaze of ice accumulations
possible.

* Winds / visibilities... look for reduced visibilities at times in
the heaviest snow bands.


* Impacts... plan on slippery Road conditions... including during
the evening commute.

Precautionary/preparedness actions...

A Winter Weather Advisory means that periods of snow, sleet or
freezing rain will cause travel difficulties. Be prepared for
slippery roads and limited visibilities, and use caution while
driving. The latest Road conditions for the state you are calling
from can be obtained by calling 5 1 1.



Lee